Other Public Products
Issued by NWS Charleston, SC

Current Version | Previous Version | Graphics & Text | Print | Product List | Glossary On
Versions: 1 2 3 4 5 6 7 8 9 10 11 12 13 14 15 16 17 18 19 20 21 22 23 24 25 26 27 28 29 30 31 32 33 34 35 36 37 38 39 40 41 42 43 44 45 46 47 48 49 50
000 FPUS82 KCHS 210925 OPUCHS TEST...KCHS/KSAV Gateway Observations...TEST National Weather Service Charleston SC 500 AM EDT THU SEP 21 2017 NOTE: "fair" indicates few or no clouds below 12,000 feet with no significant weather and/or obstructions to visibility. SCZ050-WAZ558-NCZ071-TXZ119-213-PAZ071-DCZ001-FLZ074-172-MI076- NYZ176-178-MAZ016-IL014-TNZ027-NJZ106-GAZ044-MD014-211000- ...Gateway Observations for Charleston International... CITY SKY/WX TMP DP RH WIND PRES REMARKS Chas Airport CLEAR 74 73 97 W3 29.99S FOG Seattle MOCLDY 50 47 89 SE7 29.85S Charlotte PTCLDY 68 66 93 N5 30.03R Dallas DFW CLOUDY 82 74 76 S15G23 29.88R Dallas Love CLOUDY 81 73 76 S12 29.90R Philladelphia MOCLDY 70 63 78 NW5 29.99R Wash National CLEAR 69 63 81 N8 30.01R Baltimore CLEAR 63 62 97 CALM 29.99R Miami PTCLDY 80 76 87 CALM 29.91F Detroit MOCLDY 68 67 96 CALM 30.05S FOG Newark CLOUDY 72 64 76 N14 29.95S Laguardia CLOUDY 73 65 75 N12G22 29.94S J F K CLOUDY 74 63 68 N16 29.94S Boston Logan CLOUDY 70 63 78 N24G35 29.90R Ft. Lauderdale PTCLDY 80 78 94 W3 29.90F Chicago O`Hare CLOUDY 75 67 76 S3 29.95R Chicago Midway CLOUDY 76 68 76 CALM 29.95S Houston Bush PTCLDY 79 77 94 S5 29.93F Houston Hobby PTCLDY 80 77 90 SE3 29.92F Nashville CLEAR 71 68 90 NE5 30.06R Atlanta PTCLDY 72 67 84 N6 30.04S $$ GAZ044-118-TXZ119-213-NCZ071-DCZ001-MDZ014-506-PAZ021-071-NJZ106- NYZ176-178-MAZ106-OHZ011-021-055-MIZ076-KYZ091-ILZ014-INZ047- MNZ060-ONZ431-211000- ...Gateway Observations for Savannah International... CITY SKY/WX TMP DP RH WIND PRES REMARKS Savannah Arpt CLEAR 72 70 93 CALM 29.99F Atlanta PTCLDY 72 67 84 N6 30.04S Charlotte PTCLDY 68 66 93 N5 30.03R Dallas DFW CLOUDY 82 74 76 S15G23 29.88R Houston Bush PTCLDY 79 77 94 S5 29.93F Wash National CLEAR 69 63 81 N8 30.01R Wash Dulles CLEAR 62 61 96 NW3 30.02R Baltimore CLEAR 63 62 97 CALM 29.99R Philadelphia MOCLDY 70 63 78 NW5 29.99R Newark CLOUDY 72 64 76 N14 29.95S Laguardia CLOUDY 73 65 75 N12G22 29.94S J F K CLOUDY 74 63 68 N16 29.94S Boston CLOUDY 70 63 78 N24G35 29.90R Pittsburg CLEAR 64 62 93 CALM 30.10S Akron CLEAR 65 62 90 CALM 30.10R Cleveland PTCLDY 68 63 84 S3 30.09S Cincinnati PTCLDY 68 68 100 CALM 30.06S Columbus CLEAR 64 64 100 CALM 30.08R FOG Detroit MOCLDY 68 67 96 CALM 30.05S FOG Chicago O`Hare CLOUDY 75 67 76 S3 29.95R Minneapolis CLEAR 54 53 97 CALM 29.99S Indianapolis CLEAR 74 70 87 SE7 30.02S Toronto Canada CLEAR 64 59 82 N3 30.10S $$

USA.gov is the U.S. government's official web portal to all federal, state and local government web resources and services.